Heath, OH

7:55 PM EST on December 04, 2016 (GMT -0500)
Newark Heath

Weather History for KVTA - January, 2014

Change the Weather History Date:

Sunday, January 5, 2014

  Actual Average Record
Temperature  
Mean Temperature 34 °F -  
Max Temperature 46 °F 36 °F 30 °F (2016)
Min Temperature 21 °F 19 °F 10 °F (2016)
Degree Days  
Heating Degree Days 32    
Moisture  
Dew Point 30 °F    
Average Humidity 76    
Maximum Humidity 100    
Minimum Humidity 54    
Precipitation  
Precipitation 0.21 in - - ()
Sea Level Pressure  
Sea Level Pressure 29.76 in    
Wind  
Wind Speed 3 mph (SSW)    
Max Wind Speed 23 mph    
Max Gust Speed 31 mph    
Visibility 9 miles    
Events Rain    
Averages and records for this station are not official NWS values.
T = Trace of Precipitation, MM = Missing Value Source: NWS Daily Summary

Daily Weather History Graph

Daily Weather History Graph

Search for Another Location

Airport or City:

Trip Planner

Search our weather history database for the weather conditions in past years. The results will help you decide how hot, cold, wet, or windy it might be!

Date:

Astronomy

Jan. 05, 2014 Rise Set
Actual Time 7:52 AM EST 5:18 PM EST
Civil Twilight 7:21 AM EST 5:49 PM EST
Nautical Twilight 6:47 AM EST 6:22 PM EST
Astronomical Twilight 6:15 AM EST 6:55 PM EST
Moon 10:32 AM EST 10:45 PM EST
Length of Visible Light 10h 27m
Length of Day
9h 26m
Waxing Crescent, 24% of the Moon is Illuminated
Jan 5
Waxing Crescent
Jan 7
First Quarter
Jan 15
Full
Jan 24
Last Quarter
Jan 30
New

Hourly Weather History & Observations

Time (EST) Temp. Windchill Dew Point Humidity Pressure Visibility Wind Dir Wind Speed Gust Speed Precip Events Conditions
12:54 AM 21.0 °F - 14.0 °F 74% 30.11 in 10.0 mi Calm Calm - N/A   Overcast
1:54 AM 26.1 °F - 18.0 °F 71% 30.10 in 10.0 mi Calm Calm - N/A   Overcast
2:54 AM 27.0 °F - 19.9 °F 75% 30.10 in 10.0 mi Calm Calm - N/A   Overcast
3:54 AM 27.0 °F - 19.9 °F 75% 30.09 in 10.0 mi Calm Calm - N/A   Overcast
4:54 AM 27.0 °F - 21.9 °F 81% 30.06 in 10.0 mi Calm Calm - N/A   Overcast
5:54 AM 27.0 °F - 21.0 °F 78% 30.06 in 10.0 mi Calm Calm - N/A   Overcast
6:54 AM 28.9 °F - 23.0 °F 78% 30.06 in 10.0 mi Calm Calm - N/A   Overcast
7:54 AM 35.1 °F 32.2 °F 19.9 °F 54% 30.04 in 10.0 mi SSE 3.5 mph - N/A   Overcast
8:26 AM 35.6 °F - 21.2 °F 56% 30.02 in 10.0 mi Calm Calm - N/A   Overcast
8:54 AM 35.1 °F 32.2 °F 21.9 °F 59% 30.05 in 10.0 mi SE 3.5 mph - N/A   Overcast
9:36 AM 35.6 °F - 24.8 °F 65% 29.99 in 10.0 mi Calm Calm - N/A   Overcast
9:45 AM 35.6 °F - 26.6 °F 70% 29.99 in 10.0 mi Calm Calm - N/A   Overcast
9:54 AM 36.0 °F - 25.0 °F 64% 30.03 in 10.0 mi Calm Calm - N/A   Overcast
10:54 AM 36.0 °F - 28.0 °F 73% 29.99 in 10.0 mi Calm Calm - N/A   Overcast
11:29 AM 37.4 °F - 28.4 °F 70% 29.91 in 10.0 mi Calm Calm - N/A   Overcast
11:54 AM 37.9 °F - 28.9 °F 70% 29.90 in 10.0 mi Calm Calm - N/A   Overcast
12:34 PM 42.8 °F - 30.2 °F 61% 29.82 in 10.0 mi Calm Calm - N/A   Scattered Clouds
12:54 PM 42.1 °F 38.4 °F 32.0 °F 67% 29.83 in 10.0 mi South 5.8 mph - N/A   Mostly Cloudy
1:44 PM 42.8 °F 40.1 °F 32.0 °F 66% 29.76 in 10.0 mi SSE 4.6 mph - N/A   Overcast
1:54 PM 42.1 °F 40.2 °F 33.1 °F 70% 29.77 in 10.0 mi SSE 3.5 mph - N/A   Overcast
2:54 PM 44.1 °F 39.5 °F 32.0 °F 63% 29.71 in 10.0 mi SSE 8.1 mph - N/A   Partly Cloudy
3:54 PM 44.1 °F 41.5 °F 33.1 °F 65% 29.67 in 10.0 mi SE 4.6 mph - N/A   Overcast
4:54 PM 41.0 °F 37.1 °F 33.1 °F 73% 29.66 in 10.0 mi East 5.8 mph - N/A   Mostly Cloudy
5:54 PM 39.0 °F 36.8 °F 32.0 °F 76% 29.59 in 10.0 mi NE 3.5 mph - N/A   Overcast
6:54 PM 42.1 °F 40.2 °F 34.0 °F 73% 29.54 in 10.0 mi ESE 3.5 mph - 0.00 in Rain Light Rain
7:54 PM 41.0 °F - 37.0 °F 86% 29.52 in 5.0 mi Calm Calm - 0.06 in Rain Light Rain
8:54 PM 45.0 °F 40.6 °F 39.9 °F 82% 29.47 in 9.0 mi South 8.1 mph - 0.04 in Rain Light Rain
9:54 PM 46.0 °F 40.6 °F 41.0 °F 83% 29.40 in 10.0 mi South 11.5 mph - 0.01 in   Overcast
10:08 PM 46.4 °F 41.1 °F 41.0 °F 81% 29.38 in 10.0 mi South 11.5 mph 18.4 mph 0.00 in Rain Light Rain
10:54 PM 46.9 °F - 43.0 °F 86% 29.41 in 5.0 mi WSW 23.0 mph 31.1 mph 0.03 in Rain Light Rain
11:05 PM 42.8 °F 34.5 °F 39.2 °F 87% 29.40 in 4.0 mi WNW 18.4 mph 25.3 mph 0.04 in Rain Rain
11:12 PM 41.0 °F 33.1 °F 39.2 °F 93% 29.40 in 8.0 mi WNW 15.0 mph 25.3 mph 0.05 in Rain Light Rain
11:16 PM 41.0 °F 34.3 °F 39.2 °F 93% 29.41 in 8.0 mi WNW 11.5 mph 23.0 mph 0.05 in Rain Light Rain
11:19 PM 39.2 °F 32.0 °F 39.2 °F 100% 29.41 in 8.0 mi WNW 11.5 mph - 0.05 in Rain Light Rain
11:34 PM 37.4 °F 29.8 °F 37.4 °F 100% 29.42 in 9.0 mi WNW 11.5 mph - 0.06 in Rain Light Rain
11:47 PM 37.4 °F 30.8 °F 35.6 °F 93% 29.43 in 10.0 mi West 9.2 mph - 0.06 in Rain Light Rain
11:54 PM 37.0 °F 33.3 °F 36.0 °F 96% 29.44 in 10.0 mi West 4.6 mph - 0.07 in Rain Light Rain